| time (UTC) | temp F | wind direction | speed MPH | gust MPH | rain 1hr in | rain 24hr in | rain mn in | humidity % | barometer mb |
| 20260508074553 | 56 | 138 | 4.0 | 13.0 | 0.00 | 0.00 | 0.00 | 100 | 1014.7 |
| 20260508073057 | 54 | 98 | 2.0 | 8.0 | 0.00 | 0.00 | 0.00 | 100 | 1014.5 |
| 20260508071602 | 52 | 87 | 3.0 | 17.0 | 0.00 | 0.00 | 0.00 | 100 | 1014.5 |
| 20260508070139 | 51 | 121 | 4.0 | 15.0 | 0.00 | 0.00 | 0.00 | 100 | 1014.3 |
| 20260508064608 | 50 | 46 | 2.0 | 9.0 | 0.00 | 0.00 | 0.00 | 100 | 1014.2 |
| 20260508063053 | 48 | 13 | 2.0 | 6.0 | 0.00 | 0.00 | 0.00 | 100 | 1014.1 |
| 20260508061603 | 46 | 0 | 0.0 | 3.0 | 0.00 | 0.00 | 0.00 | 100 | 1013.8 |
| 20260508060058 | 44 | 169 | 0.0 | 1.0 | 0.00 | 0.00 | 0.00 | 100 | 1013.8 |
| 20260508054558 | 43 | 0 | 0.0 | 2.0 | 0.00 | 0.00 | 0.00 | 100 | 1013.7 |
| 20260508053104 | 41 | 0 | 0.0 | 2.0 | 0.00 | 0.00 | 0.00 | 100 | 1013.5 |
| 20260508051558 | 40 | 0 | 0.0 | 0.0 | 0.00 | 0.00 | 0.00 | 100 | 1013.5 |
| 20260508050103 | 40 | 0 | 0.0 | 0.0 | 0.00 | 0.00 | 0.00 | 100 | 1013.2 |
| 20260508044557 | 40 | 0 | 0.0 | 0.0 | 0.00 | 0.00 | 0.00 | 100 | 1013.1 |
| 20260508043106 | 40 | 0 | 0.0 | 0.0 | 0.00 | 0.00 | 0.00 | 100 | 1013.2 |
| 20260508041557 | 40 | 0 | 0.0 | 0.0 | 0.00 | 0.00 | 0.00 | 100 | 1012.9 |
| 20260508040055 | 40 | 0 | 0.0 | 0.0 | 0.00 | 0.00 | 0.00 | 100 | 1013.1 |
| 20260508034556 | 40 | 0 | 0.0 | 0.0 | 0.00 | 0.00 | 0.00 | 100 | 1013.1 |
| 20260508033057 | 40 | 0 | 0.0 | 0.0 | 0.00 | 0.00 | 0.00 | 100 | 1013.2 |
| 20260508031558 | 41 | 0 | 0.0 | 0.0 | 0.00 | 0.00 | 0.00 | 100 | 1013.1 |
| 20260508024558 | 41 | 0 | 0.0 | 0.0 | 0.00 | 0.00 | 0.00 | 100 | 1013.3 |
| 20260508023055 | 41 | 0 | 0.0 | 0.0 | 0.00 | 0.00 | 0.00 | 100 | 1013.4 |
| 20260508021554 | 41 | 0 | 0.0 | 0.0 | 0.00 | 0.00 | 0.00 | 100 | 1013.4 |
| 20260508020100 | 42 | 0 | 0.0 | 0.0 | 0.00 | 0.00 | 0.00 | 100 | 1013.5 |
| 20260508014559 | 42 | 0 | 0.0 | 0.0 | 0.00 | 0.00 | 0.00 | 100 | 1013.6 |
| 20260508013104 | 43 | 0 | 0.0 | 2.0 | 0.00 | 0.00 | 0.00 | 100 | 1013.6 |
| 20260508011557 | 43 | 0 | 0.0 | 2.0 | 0.00 | 0.00 | 0.00 | 100 | 1013.6 |
| 20260508010054 | 42 | 0 | 0.0 | 0.0 | 0.00 | 0.00 | 0.00 | 100 | 1013.5 |
| 20260508004600 | 42 | 0 | 0.0 | 2.0 | 0.00 | 0.00 | 0.00 | 100 | 1013.6 |
| 20260508003055 | 42 | 0 | 0.0 | 0.0 | 0.00 | 0.00 | 0.00 | 100 | 1013.8 |
| 20260508001556 | 42 | 0 | 0.0 | 0.0 | 0.00 | 0.00 | 0.00 | 100 | 1014.0 |
| 20260508000057 | 42 | 0 | 0.0 | 0.0 | 0.00 | 0.00 | 0.00 | 100 | 1014.2 |
| 20260507234559 | 43 | 0 | 0.0 | 0.0 | 0.00 | 0.00 | 0.00 | 100 | 1014.2 |
| 20260507233055 | 43 | 0 | 0.0 | 0.0 | 0.00 | 0.00 | 0.00 | 100 | 1014.2 |
| 20260507231555 | 43 | 0 | 0.0 | 0.0 | 0.00 | 0.00 | 0.00 | 100 | 1014.3 |
| 20260507230100 | 44 | 0 | 0.0 | 0.0 | 0.00 | 0.00 | 0.00 | 100 | 1014.3 |
| 20260507224557 | 44 | 0 | 0.0 | 0.0 | 0.00 | 0.00 | 0.00 | 100 | 1014.3 |
| 20260507223057 | 45 | 0 | 0.0 | 0.0 | 0.00 | 0.00 | 0.00 | 100 | 1014.2 |
| 20260507221600 | 45 | 0 | 0.0 | 0.0 | 0.00 | 0.00 | 0.00 | 100 | 1014.3 |
| 20260507220057 | 45 | 0 | 0.0 | 0.0 | 0.00 | 0.00 | 0.00 | 100 | 1014.3 |
| 20260507214554 | 45 | 0 | 0.0 | 0.0 | 0.00 | 0.07 | 0.00 | 100 | 1014.2 |
| 20260507213101 | 45 | 0 | 0.0 | 0.0 | 0.00 | 0.07 | 0.00 | 100 | 1014.2 |
| 20260507211559 | 46 | 0 | 0.0 | 0.0 | 0.00 | 0.07 | 0.00 | 100 | 1014.2 |
| 20260507210059 | 46 | 0 | 0.0 | 0.0 | 0.00 | 0.07 | 0.00 | 100 | 1014.3 |
| 20260507204600 | 47 | 0 | 0.0 | 0.0 | 0.00 | 0.14 | 0.00 | 100 | 1014.2 |
| 20260507203058 | 48 | 0 | 0.0 | 0.0 | 0.00 | 0.14 | 0.00 | 100 | 1014.2 |
| 20260507201604 | 48 | 0 | 0.0 | 2.0 | 0.00 | 0.14 | 0.00 | 100 | 1014.1 |
| 20260507200059 | 49 | 0 | 0.0 | 2.0 | 0.00 | 0.14 | 0.00 | 99 | 1014.0 |
| 20260507194608 | 50 | 0 | 0.0 | 2.0 | 0.00 | 0.14 | 0.00 | 98 | 1013.8 |
| 20260507193056 | 51 | 0 | 0.0 | 3.0 | 0.00 | 0.14 | 0.00 | 97 | 1013.7 |
| 20260507191615 | 51 | 78 | 0.0 | 2.0 | 0.00 | 0.14 | 0.00 | 98 | 1013.6 |
| 20260507190055 | 52 | 0 | 0.0 | 3.0 | 0.00 | 0.14 | 0.00 | 96 | 1013.5 |
| 20260507184602 | 53 | 131 | 0.0 | 2.0 | 0.00 | 0.15 | 0.00 | 94 | 1013.4 |
| 20260507183103 | 54 | 0 | 0.0 | 4.0 | 0.00 | 0.15 | 0.00 | 89 | 1013.4 |
| 20260507181555 | 55 | 123 | 2.0 | 4.0 | 0.00 | 0.15 | 0.00 | 84 | 1013.1 |
| 20260507180101 | 56 | 155 | 1.0 | 8.0 | 0.00 | 0.15 | 0.00 | 84 | 1013.0 |
| 20260507174556 | 56 | 280 | 1.0 | 6.0 | 0.00 | 0.17 | 0.00 | 83 | 1013.0 |
| 20260507173059 | 57 | 208 | 2.0 | 7.0 | 0.00 | 0.17 | 0.00 | 83 | 1012.8 |
| 20260507171559 | 58 | 0 | 1.0 | 9.0 | 0.00 | 0.17 | 0.00 | 82 | 1012.6 |
| 20260507164626 | 56 | 263 | 1.0 | 4.0 | 0.00 | 0.17 | 0.00 | 81 | 1012.4 |
| 20260507163101 | 56 | 271 | 0.0 | 4.0 | 0.00 | 0.17 | 0.00 | 77 | 1012.7 |
| 20260507161606 | 58 | 253 | 0.0 | 4.0 | 0.00 | 0.17 | 0.00 | 73 | 1012.7 |
| 20260507160057 | 59 | 196 | 1.0 | 5.0 | 0.00 | 0.17 | 0.00 | 69 | 1012.6 |
| 20260507154556 | 59 | 106 | 1.0 | 6.0 | 0.00 | 0.17 | 0.00 | 71 | 1012.8 |
| 20260507153054 | 61 | 0 | 0.0 | 2.0 | 0.00 | 0.17 | 0.00 | 72 | 1012.5 |
| 20260507151556 | 63 | 0 | 1.0 | 6.0 | 0.00 | 0.17 | 0.00 | 73 | 1013.0 |
| 20260507150058 | 62 | 88 | 0.0 | 0.0 | 0.00 | 0.17 | 0.00 | 78 | 1013.0 |
| 20260507144600 | 60 | 0 | 0.0 | 3.0 | 0.00 | 0.17 | 0.00 | 82 | 1013.3 |
| 20260507143108 | 63 | 0 | 2.0 | 6.0 | 0.00 | 0.17 | 0.00 | 74 | 1013.3 |
| 20260507141611 | 63 | 208 | 1.0 | 6.0 | 0.00 | 0.17 | 0.00 | 74 | 1013.4 |
| 20260507140058 | 62 | 0 | 1.0 | 4.0 | 0.00 | 0.17 | 0.00 | 72 | 1013.5 |
| 20260507134617 | 61 | 0 | 1.0 | 6.0 | 0.00 | 0.18 | 0.00 | 80 | 1013.7 |
| 20260507133106 | 62 | 80 | 1.0 | 5.0 | 0.00 | 0.18 | 0.00 | 80 | 1013.7 |
| 20260507131612 | 62 | 0 | 0.0 | 5.0 | 0.00 | 0.18 | 0.00 | 80 | 1013.9 |
| 20260507130058 | 61 | 168 | 1.0 | 5.0 | 0.00 | 0.18 | 0.00 | 82 | 1014.0 |
| 20260507124558 | 60 | 0 | 0.0 | 7.0 | 0.00 | 0.18 | 0.00 | 86 | 1014.0 |
| 20260507123112 | 60 | 155 | 1.0 | 4.0 | 0.00 | 0.18 | 0.00 | 86 | 1014.2 |
| 20260507121557 | 61 | 184 | 2.0 | 6.0 | 0.00 | 0.18 | 0.00 | 87 | 1014.4 |
| 20260507114600 | 59 | 132 | 1.0 | 4.0 | 0.00 | 0.18 | 0.00 | 92 | 1014.4 |
| 20260507113057 | 59 | 109 | 1.0 | 5.0 | 0.00 | 0.18 | 0.00 | 100 | 1014.5 |
| 20260507111559 | 54 | 234 | 3.0 | 6.0 | 0.00 | 0.18 | 0.00 | 97 | 1014.6 |
| 20260507104601 | 55 | 0 | 1.0 | 7.0 | 0.00 | 0.18 | 0.00 | 95 | 1014.7 |
| 20260507103053 | 56 | 238 | 0.0 | 3.0 | 0.00 | 0.18 | 0.00 | 99 | 1014.7 |
| 20260507101557 | 55 | 104 | 1.0 | 7.0 | 0.00 | 0.18 | 0.00 | 93 | 1014.9 |
| 20260507100101 | 57 | 103 | 1.0 | 5.0 | 0.00 | 0.18 | 0.00 | 99 | 1015.0 |
| 20260507094557 | 57 | 103 | 1.0 | 6.0 | 0.00 | 0.18 | 0.00 | 99 | 1014.7 |
| 20260507093054 | 56 | 88 | 2.0 | 7.0 | 0.00 | 0.18 | 0.00 | 98 | 1015.0 |
| 20260507091557 | 54 | 111 | 2.0 | 6.0 | 0.00 | 0.18 | 0.00 | 100 | 1015.0 |
| 20260507084557 | 53 | 65 | 1.0 | 4.0 | 0.00 | 0.18 | 0.00 | 100 | 1014.9 |
| 20260507083058 | 52 | 0 | 0.0 | 3.0 | 0.00 | 0.18 | 0.00 | 100 | 1014.8 |
| 20260507081556 | 52 | 0 | 0.0 | 4.0 | 0.00 | 0.18 | 0.00 | 100 | 1014.9 |
| 20260507080116 | 51 | 119 | 2.0 | 6.0 | 0.00 | 0.18 | 0.00 | 100 | 1014.6 |